Hourly Data Report for April 15, 2006

TORONTO CITY
ONTARIO

43°40'00.000" N
79°24'00.000" W
112.50 m
6158355
71508
XTO

Download Data

Hourly Data (April 2006)
Hourly Data Report for April 15, 2006
TIME
LST
Temp Definition
°C
Dew Point Definition
°C
Rel Hum Definition
%
Precip. Amount Definition
mm

Wind Dir Definition
10's deg

Wind Spd Definition
km/h
Visibility Definition
km
Stn Press Definition
kPa
Hmdx Definition


Wind Chill Definition


Weather Definition


00:00 10.5 10.3 99   LegendMM LegendMM   98.53     LegendNANA
01:00 10.8 10.5 98   LegendMM LegendMM   98.53     LegendNANA
02:00 10.0 9.6 97   LegendMM LegendMM   98.56     LegendNANA
03:00 9.4 9.2 99   LegendMM LegendMM   98.55     LegendNANA
04:00 8.7 8.5 99   LegendMM LegendMM   98.55     LegendNANA
05:00 9.8 6.7 81   LegendMM LegendMM   98.61     LegendNANA
06:00 9.1 6.4 83   LegendMM LegendMM   98.65     LegendNANA
07:00 9.6 6.3 80   LegendMM LegendMM   98.70     LegendNANA
08:00 11.2 6.9 75   LegendMM LegendMM   98.76     LegendNANA
09:00 12.5 7.5 72   LegendMM LegendMM   98.81     LegendNANA
10:00 13.9 7.4 65   LegendMM LegendMM   98.85     LegendNANA
11:00 13.6 6.3 61   LegendMM LegendMM   98.91     LegendNANA
12:00 13.8 6.4 61   LegendMM LegendMM   98.94     LegendNANA
13:00 15.6 7.4 58   LegendMM LegendMM   98.95     LegendNANA
14:00 15.3 6.1 54   LegendMM LegendMM   98.99     LegendNANA
15:00 16.0 6.6 54   LegendMM LegendMM   99.02     LegendNANA
16:00 14.7 6.2 57   LegendMM LegendMM   99.05     LegendNANA
17:00 13.4 5.6 59   LegendMM LegendMM   99.17     LegendNANA
18:00 12.5 3.9 56   LegendMM LegendMM   99.24     LegendNANA
19:00 11.2 3.5 59   LegendMM LegendMM   99.32     LegendNANA
20:00 10.8 3.7 61   LegendMM LegendMM   99.41     LegendNANA
21:00 10.3 3.6 63   LegendMM LegendMM   99.51     LegendNANA
22:00 9.6 3.7 67   LegendMM LegendMM   99.53     LegendNANA
23:00 8.7 3.5 70   LegendMM LegendMM   99.59     LegendNANA

Notes on Data Quality.

Legend

  • E = Estimated
  • M = Missing
  • NA = Not Available*
  • [empty] = Indicates an unobserved value
Date modified: